Location: *
(51.1248°S, 108.4023°W)
Time: 04:24:40
(UTC+00:00)

Cosmos 2278 Rocket - Pass Details

Date: 31 October 2021
Orbit: 841 x 845 km, 71.0° (Epoch: 01 December)

Event Time Altitude Azimuth Distance (km) Brightness Sun altitude
Rises 08:13:22 0° 261° (W) 3,423 5.3 -22.6°
Reaches altitude 10° 08:17:06 10° 236° (WSW) 2,493 4.8 -22.4°
Maximum altitude 08:20:08 14° 204° (SSW) 2,196 4.9 -22.2°
Drops below altitude 10° 08:23:12 10° 172° (S) 2,500 5.7 -22.0°
Sets 08:26:58 0° 147° (SSE) 3,440 6.8 -21.8°
